Location: Unspecified
(42.3650°N, 71.1030°W)
Time: 15:33:07
(UTC+00:00)

Transit 2A - Pass Details

Date: 30 June 2024
Orbit: 591 x 960 km, 66.7° (Epoch: 16 July)

Event Time Altitude Azimuth Distance (km) Brightness Sun altitude
Rises 02:38:56 0° 330° (NNW) 3,560 11.2 -18.0°
Reaches altitude 10° 02:41:26 10° 332° (NNW) 2,647 10.1 -18.3°
Maximum altitude 02:47:42 76° 58° (ENE) 987 6.5 -18.8°
Enters shadow 02:50:52 32° 139° (SE) 1,589 7.1 -19.1°
